Temp
14 13 13 13 13 13 13 13 13 13 13 13 13 13 13 13 13 13 13 13 13 13 13 14 14 14 14 15 15 15 15 15 15 15 15 15 15 15 16 16 15 15 15 15 15 15 15 15 15 15 15 15 14 15 15 16 16 16 16 16 16 16 16 16 16 17 17 18 18 18 17 17 17 17 17 17 17 17 17 17 17 17 17 16 14
14 14 13 13 13 13 13 13 13 13 13 13 13 13 13 12 12 12 12 12 12 12 12 13 13 13 14 14 14 14 14 15 15 15 15 15 15 15 15 15 15 15 15 15 15 15 15 15 15 15 15 15 15 15 15 16 15 15 16 16 16 16 16 15 16 16 17 17 18 17 16 16 16 16 17 17 17 17 17 17 17 17 17 16 15
14 13 13 13 13 13 13 13 13 12 12 12 12 12 12 12 11 11 11 11 11 11 11 11 12 13 13 13 13 13 13 14 14 14 14 14 14 15 15 15 15 15 15 15 15 15 15 15 15 15 15 15 15 15 15 16 15 15 16 16 16 16 16 15 15 16 17 17 17 17 16 16 16 16 17 18 17 17 17 17 17 17 16 16 16
13 13 13 12 12 12 12 12 12 12 12 12 12 12 11 11 10 10 10 9 9 10 10 10 11 11 12 12 12 12 12 12 12 12 12 12 12 13 14 14 15 15 15 15 15 15 15 15 15 15 15 15 15 15 15 15 15 15 16 16 16 16 16 15 15 16 16 16 16 16 16 16 16 16 16 17 17 17 16 16 16 16 16 16 16
13 12 12 12 12 12 12 11 11 11 11 11 11 11 11 10 10 9 9 9 8 9 9 9 9 9 10 10 10 11 11 11 11 11 11 11 11 12 12 13 14 14 14 14 14 15 15 15 14 15 15 15 14 14 15 15 15 15 15 16 16 17 16 16 15 15 16 15 16 16 16 16 15 15 16 16 15 15 15 16 16 16 16 15 16
12 12 12 11 11 11 11 11 11 11 11 11 10 10 10 10 9 9 9 8 8 8 8 8 8 8 8 8 9 9 10 10 9 10 10 11 11 11 12 12 13 13 14 14 14 14 14 14 14 14 14 14 15 15 15 15 15 15 15 16 16 16 16 16 15 16 16 15 15 15 15 15 15 15 15 16 15 15 15 15 15 15 15 15 15
11 11 11 11 11 11 11 11 11 10 10 10 10 9 9 9 9 9 8 8 8 8 8 7 7 7 7 7 7 8 9 8 8 8 8 9 10 11 11 12 12 13 13 14 14 14 14 14 14 14 14 14 15 15 15 15 15 15 15 16 15 15 14 15 14 15 15 15 14 14 14 14 15 15 15 16 15 15 15 15 14 14 15 15 16
11 11 11 11 10 10 10 10 10 10 10 10 9 9 9 8 8 8 8 8 8 8 7 7 7 6 6 6 6 7 7 7 6 6 6 7 8 9 10 11 12 13 13 13 13 14 14 14 14 14 14 14 14 15 15 15 15 15 15 15 15 14 14 14 14 14 15 14 14 14 14 14 15 15 15 15 14 14 15 15 15 14 14 15 16
10 10 10 10 10 10 10 10 10 10 10 10 9 9 9 8 8 8 8 8 8 8 7 7 6 6 6 6 5 6 6 6 5 4 5 6 7 7 8 9 11 12 12 13 13 13 14 14 14 14 15 14 14 14 15 15 15 15 15 15 15 15 14 14 14 14 14 14 14 14 14 14 14 14 14 14 14 14 15 16 15 15 15 15 15
10 10 10 10 10 10 10 10 10 10 10 10 9 9 9 8 8 8 8 8 8 8 7 6 6 6 5 5 5 5 5 5 4 4 5 6 6 7 8 9 10 10 11 12 12 13 14 14 14 14 14 15 15 15 15 15 15 15 15 15 15 15 14 14 14 14 14 14 14 14 14 14 14 14 14 15 14 14 15 16 16 15 15 14 14
10 10 10 10 10 9 9 9 9 9 9 9 9 9 9 8 8 8 8 7 7 7 7 6 6 5 5 5 4 4 4 4 3 4 6 7 7 7 7 8 9 10 10 10 11 13 13 14 14 14 14 14 14 15 15 15 15 15 15 15 15 15 15 14 14 14 14 14 14 14 14 14 14 14 14 15 15 15 15 15 15 15 15 14 14
9 9 9 9 9 9 9 9 9 9 9 9 9 9 9 8 8 8 7 7 7 7 6 6 5 5 4 4 4 4 4 3 3 4 6 7 8 8 8 9 9 9 9 9 10 12 13 13 14 14 14 14 14 14 15 15 15 15 15 15 15 15 15 15 15 14 14 14 14 14 14 14 14 14 14 15 15 15 15 15 15 16 15 15 14
9 9 9 9 9 8 8 8 9 9 9 9 9 9 8 8 8 8 7 7 6 6 6 6 5 4 4 4 4 4 3 3 3 4 5 7 9 9 9 9 9 9 9 9 10 11 12 13 14 14 14 14 14 14 15 15 15 14 14 15 14 14 14 15 15 15 15 15 14 14 14 14 15 15 15 15 15 15 15 14 15 16 16 15 15
9 9 9 8 8 8 8 8 8 8 8 8 8 8 8 8 8 7 7 7 6 6 6 5 4 4 4 4 3 3 3 3 3 4 5 7 9 9 9 9 9 9 9 9 10 10 11 13 13 14 14 14 14 14 14 14 14 14 14 14 14 14 14 14 15 15 15 15 16 16 15 14 15 16 16 15 15 15 15 15 15 16 16 16 16
9 9 9 8 8 8 8 8 8 8 8 8 7 7 7 7 7 7 7 7 6 6 5 5 4 4 4 3 3 3 3 3 3 3 4 6 9 9 8 7 8 8 9 9 9 10 11 12 13 13 14 14 14 14 14 14 14 14 14 13 14 14 14 14 14 14 15 15 16 16 15 14 15 16 16 15 16 16 16 15 15 15 16 16 16
9 9 9 8 8 8 8 8 8 8 8 7 7 7 7 6 6 6 6 6 6 6 5 4 4 4 4 3 3 3 3 3 3 3 3 5 7 7 6 6 7 8 8 9 9 10 10 11 12 13 13 14 14 14 14 14 14 13 13 13 13 14 14 14 14 14 15 15 15 15 15 14 14 15 15 15 15 15 15 15 14 15 15 15 14
9 9 9 8 8 8 8 8 8 8 7 7 7 6 6 6 6 6 6 6 6 5 5 5 4 4 4 3 3 3 3 3 4 4 4 4 5 5 4 5 6 6 7 8 8 9 9 10 11 12 13 14 14 14 14 14 13 13 13 13 13 13 13 13 14 14 14 14 14 14 14 14 14 15 15 15 15 15 14 14 15 15 15 14 13
9 9 9 9 8 8 8 8 8 8 7 7 6 6 6 5 5 5 5 5 5 5 5 5 4 4 3 3 3 3 3 3 4 4 4 4 4 3 3 4 4 5 6 6 7 7 8 8 9 10 12 13 14 14 14 13 13 12 13 12 12 12 12 13 13 13 13 13 14 14 14 14 14 14 15 15 14 15 15 15 15 16 15 14 12
9 9 9 9 9 9 8 8 8 8 7 7 6 6 6 5 5 5 5 5 5 5 5 5 4 4 3 3 3 3 3 3 4 4 4 4 4 4 3 3 3 4 4 5 5 6 6 7 7 9 11 12 13 14 13 13 13 13 13 12 12 11 12 12 12 12 12 13 13 13 13 13 13 13 13 14 14 14 15 15 15 15 14 13 12
9 9 9 9 9 9 8 8 8 8 7 7 6 6 6 5 5 5 5 5 4 4 4 4 4 4 4 3 3 3 3 3 3 4 4 4 4 4 4 3 3 3 4 4 4 4 5 6 6 8 10 12 13 14 13 13 13 12 13 13 12 11 11 11 12 12 12 12 12 12 12 11 12 12 12 13 13 14 14 14 15 15 14 13 12
9 9 9 9 8 8 8 8 8 8 7 7 7 6 6 6 5 5 5 5 4 4 4 4 4 4 4 4 3 3 3 3 3 4 4 4 4 4 4 3 3 3 3 3 4 4 4 4 5 6 9 11 12 13 13 12 12 12 12 12 12 11 11 10 11 11 11 11 11 11 11 11 11 11 11 12 12 13 14 14 14 14 14 14 13
9 9 9 9 9 8 8 8 8 8 7 7 7 6 6 6 5 5 5 5 4 4 4 4 4 4 4 4 3 3 3 3 3 4 4 4 4 4 4 4 3 3 3 3 3 3 4 4 4 6 8 9 11 11 11 11 12 11 11 11 11 11 10 10 10 10 10 10 10 10 10 10 10 10 10 11 11 12 13 13 12 13 13 13 14
9 9 9 9 9 8 8 8 8 8 7 7 7 6 6 5 5 5 5 5 4 4 4 4 4 3 3 3 3 3 3 3 3 4 4 4 4 4 4 4 4 3 2 2 2 3 4 4 5 6 8 9 9 10 10 11 11 10 10 10 10 10 10 10 10 9 9 9 9 9 9 9 9 9 9 9 10 11 11 11 11 12 12 12 13
9 9 9 9 9 8 8 8 8 8 7 7 7 6 6 6 5 5 5 5 5 5 4 4 4 3 3 3 3 3 3 3 3 4 4 4 4 4 4 4 4 4 3 2 2 3 4 5 5 6 7 7 8 8 9 9 9 9 9 9 9 9 10 9 9 9 8 8 8 8 8 8 9 9 9 9 9 9 10 10 10 11 11 11 11
10 10 9 9 9 8 8 8 8 8 7 7 6 6 6 6 6 5 5 5 5 5 4 4 4 3 3 3 3 2 2 3 3 3 4 4 4 4 4 4 4 4 4 3 3 3 4 5 6 6 6 6 7 7 7 7 8 8 8 8 9 9 9 9 8 8 7 7 7 7 7 7 8 8 8 9 9 9 9 9 9 9 9 9 9
10 10 10 9 9 9 9 8 8 8 7 7 7 6 6 6 6 6 6 5 5 5 5 4 4 4 3 3 3 3 2 2 2 3 3 3 3 3 4 4 4 4 4 4 4 4 5 5 5 5 5 5 5 5 6 7 7 8 8 8 8 8 8 8 8 7 7 6 7 7 7 7 7 8 8 9 9 9 8 8 8 8 9 9 8
10 10 10 9 9 9 9 8 8 7 7 7 7 6 6 6 6 6 6 6 5 5 5 4 4 4 3 3 3 3 3 2 2 2 2 2 3 3 3 3 3 4 4 4 4 4 4 5 5 4 5 5 5 5 5 5 6 6 6 7 7 7 7 7 7 7 6 6 6 6 6 7 7 8 8 8 8 8 8 8 8 8 8 8 8
10 10 10 10 9 9 9 8 8 8 7 7 7 7 6 6 6 6 6 6 6 5 5 5 4 4 4 3 3 3 3 3 2 2 1 2 2 2 3 3 3 3 3 4 4 4 4 5 5 4 4 4 4 4 4 4 4 4 5 5 6 6 6 7 7 6 6 6 6 6 6 6 7 7 7 8 8 8 8 9 8 8 8 8 8
10 10 10 10 10 10 9 9 8 8 7 7 7 7 7 6 6 6 6 6 6 6 5 5 5 4 4 3 3 3 3 3 3 2 2 2 2 2 2 2 2 2 2 3 4 4 4 4 3 3 2 2 2 2 3 3 3 3 4 4 5 6 6 6 6 6 6 6 6 6 7 7 7 7 7 7 7 7 8 8 8 8 8 8 7
10 10 10 10 10 10 9 9 9 8 8 8 7 7 7 7 6 6 6 6 6 6 6 5 5 4 4 4 4 3 3 3 3 3 2 2 2 2 2 2 2 2 2 3 3 2 1 1 1 0 1 0 0 1 1 2 2 3 3 4 4 4 5 5 6 6 7 7 7 7 7 7 7 7 7 7 7 7 8 8 8 7 7 7 7
10 10 10 10 10 10 10 10 9 9 8 8 8 7 7 7 7 7 6 6 6 6 6 6 5 5 4 4 4 4 4 4 4 3 3 3 2 2 2 2 2 2 2 3 2 1 -0 -0 -0 -0 -0 -0 -0 -0 0 1 1 1 2 3 4 4 5 5 6 6 7 7 7 7 7 7 7 8 8 8 7 7 7 8 8 8 8 7 7
10 10 10 10 10 10 10 10 10 9 9 8 8 8 8 7 7 7 7 7 6 6 6 6 6 5 5 4 4 4 4 4 4 3 3 3 2 2 2 2 2 2 2 2 1 -0 -0 -0 -0 -0 -0 -0 -0 -0 -0 0 0 1 1 1 2 3 4 4 5 6 6 6 6 6 7 7 7 7 7 7 8 7 7 7 7 7 7 7 7
10 10 10 10 10 10 10 10 10 10 9 9 9 9 9 8 8 8 7 7 7 7 6 6 6 6 5 5 4 4 4 4 3 3 3 3 2 2 2 2 1 2 2 2 0 -0 0 -0 -0 -0 -0 -0 -0 -0 -0 0 0 0 1 1 1 2 3 4 5 5 5 5 5 6 6 6 7 7 7 7 7 7 6 6 6 6 6 6 6
10 10 10 10 9 9 10 9 9 10 9 9 9 9 9 9 8 8 8 7 7 6 6 6 6 6 5 5 4 4 4 4 3 3 3 3 3 2 2 2 2 1 1 1 0 -0 0 -0 -0 -0 -0 -0 0 0 0 0 0 1 1 1 1 2 2 3 4 4 5 5 5 5 6 6 6 6 6 6 7 7 6 6 6 6 6 6 6
10 9 9 10 10 9 9 9 9 10 9 9 9 9 9 9 8 8 8 7 7 6 6 6 6 6 6 5 5 4 4 4 3 3 3 3 3 3 2 2 2 1 1 1 0 0 0 -0 -0 -0 -0 0 0 0 0 0 0 1 1 1 1 1 2 2 2 3 4 4 5 5 5 6 6 6 6 6 6 6 6 7 7 7 6 6 6
10 9 9 10 10 9 9 10 10 9 9 9 9 9 9 9 8 8 8 8 7 7 6 6 6 6 6 5 5 4 4 4 3 3 3 3 3 3 2 2 2 2 1 1 1 0 0 0 0 0 0 0 0 0 1 1 1 1 1 1 1 1 1 2 2 2 3 3 4 4 5 5 5 6 6 6 6 6 6 7 7 7 7 7 6
10 10 10 10 10 10 10 10 10 9 9 9 9 9 9 9 8 8 8 8 7 7 6 6 6 6 6 6 5 4 4 4 4 3 3 3 3 3 2 2 2 2 1 1 1 1 0 0 0 0 1 1 1 1 1 1 1 1 1 1 2 2 2 2 2 3 3 3 3 3 4 4 5 5 5 6 6 6 6 7 7 6 6 7 7
10 10 10 10 10 10 10 10 10 9 9 9 9 9 9 9 8 8 8 8 7 7 7 6 6 6 6 6 5 5 4 4 4 3 3 3 3 3 2 2 2 2 2 1 1 1 1 1 1 1 1 1 1 1 1 1 1 2 2 2 2 2 2 2 3 3 3 3 3 3 4 4 4 5 5 5 6 6 6 6 6 6 6 6 7
10 10 10 10 10 10 10 9 9 9 9 9 9 9 9 9 8 8 8 8 8 7 7 6 6 6 6 6 6 5 4 4 4 3 3 3 3 3 2 2 2 2 2 2 2 1 1 1 1 1 1 1 1 1 1 1 2 2 2 2 2 2 3 3 3 3 3 3 3 4 4 4 5 5 5 5 5 6 6 6 6 6 6 6 6
10 10 10 10 10 10 10 9 9 9 10 10 9 9 9 9 8 8 8 8 8 8 7 7 6 6 6 6 6 5 5 4 4 3 3 3 3 3 3 2 2 2 2 2 2 2 1 1 1 1 1 1 1 1 1 2 2 2 2 2 2 2 3 3 3 3 4 4 4 4 4 5 5 5 5 5 6 6 6 6 6 6 6 6 6
10 10 10 10 10 10 10 10 10 9 9 9 9 9 9 9 9 8 8 8 8 8 7 7 7 7 6 6 6 5 5 4 4 4 3 3 3 3 3 3 3 3 2 2 2 2 2 2 2 2 2 2 2 2 2 2 2 2 2 2 2 2 3 3 3 4 4 4 4 4 5 5 5 5 5 5 5 6 6 6 6 6 6 6 6
10 10 10 10 10 10 10 10 10 10 10 10 10 9 9 9 9 8 8 8 8 8 7 7 7 7 7 6 6 6 5 5 4 4 4 3 3 3 3 3 3 3 2 2 2 2 2 2 2 2 2 2 2 2 2 2 2 2 2 2 2 2 2 3 3 3 4 4 4 4 5 5 5 5 5 5 5 5 5 5 5 6 6 6 6
10 10 10 10 10 10 10 10 10 10 10 10 10 9 9 9 9 8 8 8 8 8 8 7 7 7 7 6 6 6 5 5 5 4 4 4 3 3 3 3 3 3 3 3 2 2 2 2 2 2 2 2 2 2 2 2 2 2 2 2 2 2 2 3 3 3 3 3 4 4 5 5 5 5 5 5 5 5 5 5 5 5 5 5 5
10 10 10 10 10 10 10 10 10 10 10 10 10 9 9 9 9 9 8 8 8 8 8 8 7 7 7 6 6 6 6 5 5 5 4 4 4 3 3 3 3 3 3 3 3 3 3 2 2 2 2 2 2 2 2 2 2 2 2 2 2 2 2 2 2 3 3 3 4 4 5 5 5 5 5 5 5 5 5 5 5 5 5 5 5
10 10 10 10 10 10 10 10 10 10 10 9 9 9 9 9 9 9 8 8 8 8 8 8 7 7 7 7 6 6 6 6 5 5 5 5 4 4 3 3 3 3 3 3 3 3 3 3 3 2 2 2 2 2 2 2 2 2 2 2 2 3 2 2 2 3 3 3 4 4 4 5 5 5 5 5 5 5 5 5 5 5 5 5 5
9 10 10 10 10 10 10 10 10 10 9 9 9 9 9 9 9 9 8 8 8 8 8 8 7 7 7 7 7 6 6 6 6 5 5 5 4 4 4 3 3 3 3 3 3 3 3 3 3 2 2 2 2 2 2 2 2 2 2 2 2 2 2 2 2 3 3 3 3 4 4 4 4 5 5 5 5 5 5 5 5 5 5 5 5
9 10 10 10 10 10 10 10 10 10 9 9 9 9 9 9 9 9 8 8 8 8 8 8 7 7 7 7 7 6 6 6 6 5 5 5 5 4 4 4 3 3 3 3 3 3 3 3 3 2 2 2 2 2 2 2 2 2 2 2 2 2 2 2 2 3 3 3 3 3 4 4 4 4 4 4 4 4 4 4 4 5 5 5 5
9 10 10 10 10 10 10 10 10 9 9 9 9 9 9 9 9 8 8 8 8 8 8 8 8 7 7 7 7 7 6 6 6 6 5 5 5 4 4 4 4 4 4 3 3 3 3 3 3 2 2 2 2 2 2 2 2 2 2 2 2 2 2 2 2 2 3 3 3 3 4 4 4 4 4 4 4 4 4 4 4 4 4 4 4
10 10 10 10 10 10 10 10 10 9 9 9 9 9 9 9 8 8 8 8 8 8 8 8 8 7 7 7 7 7 6 6 6 6 5 5 5 5 4 4 4 4 4 4 3 3 3 3 3 2 2 2 2 2 2 2 2 2 2 2 2 2 2 2 2 2 2 3 3 3 3 3 3 4 4 4 4 4 4 4 4 4 4 4 4
9 10 10 10 10 10 10 10 10 9 9 9 9 9 9 9 8 8 8 8 8 8 8 8 8 7 7 7 7 7 7 6 6 6 6 5 5 5 5 4 4 4 4 4 4 4 3 3 3 3 2 2 2 2 2 2 2 2 2 2 2 2 2 2 2 2 2 2 3 3 3 3 3 3 3 3 3 4 4 4 4 4 4 4 4
9 10 10 10 10 10 10 10 10 10 9 9 9 9 9 9 8 8 8 8 8 8 8 7 7 7 7 7 7 7 7 6 6 6 6 5 5 5 5 4 4 4 4 4 4 4 3 3 3 3 3 2 2 2 2 2 2 2 2 2 2 2 1 1 2 2 2 2 2 2 3 3 3 3 3 3 3 3 3 3 4 4 4 4 4
Height
824 824 823 823 823 822 822 821 820 819 818 817 816 816 815 814 813 811 809 808 807 806 805 804 802 800 798 796 794 793 792 791 791 790 788 787 786 786 786 786 786 785 785 784 783 783 783 784 785 786 788 789 789 789 790 789 790 790 791 790 790 790 792 794 794 793 793 794 795 797 800 803 806 808 810 812 814 816 818 820 821 823 825 827 829
825 824 824 823 823 823 822 821 820 819 818 817 816 816 815 814 812 811 809 808 807 806 805 803 802 800 797 796 794 792 791 790 789 788 787 786 785 784 784 783 783 782 782 781 781 781 781 781 782 783 783 784 784 785 786 786 786 787 786 786 786 787 789 792 794 792 791 791 793 794 797 801 803 804 806 808 810 812 814 817 819 820 822 824 826
826 825 825 824 823 823 822 821 820 819 818 817 816 816 815 814 813 811 809 808 807 806 805 803 802 800 797 796 794 792 791 789 788 787 786 784 782 781 781 780 779 779 779 778 778 778 778 778 778 779 779 779 780 781 782 782 783 783 782 782 782 783 786 789 791 791 789 789 790 791 793 797 799 801 803 805 807 809 811 813 816 818 820 822 823
826 826 825 825 824 824 823 821 821 819 819 818 817 816 816 814 813 811 810 808 807 806 805 804 802 800 798 796 794 793 791 789 788 786 785 783 781 779 778 777 776 776 775 775 774 774 774 774 775 776 775 775 776 778 779 779 779 780 780 779 778 779 781 784 787 787 786 786 787 788 789 792 795 797 800 803 805 807 808 811 813 816 818 820 821
827 827 826 826 825 824 824 823 821 820 820 819 818 817 816 815 814 812 811 809 808 807 806 804 803 801 799 797 795 793 791 789 787 786 784 782 780 778 776 774 773 773 772 770 770 770 771 771 773 774 773 772 772 774 775 775 775 776 776 776 774 774 776 778 780 783 784 785 785 786 787 790 794 796 797 800 803 806 808 809 811 814 816 818 820
828 828 828 827 826 826 825 824 823 822 821 820 819 818 817 816 815 813 812 810 809 808 806 805 804 802 800 797 795 794 792 789 786 785 783 781 778 777 774 772 771 769 768 766 766 767 767 769 770 771 771 769 768 769 771 772 772 772 771 771 771 771 773 774 774 777 780 782 784 787 788 789 792 795 796 798 800 802 805 808 809 812 813 815 817
830 830 829 828 828 827 826 826 825 824 823 822 821 820 818 817 816 815 814 812 810 809 808 806 805 803 801 798 796 794 792 789 786 784 782 780 777 775 773 771 769 767 765 763 763 763 763 765 766 766 766 765 764 765 767 768 768 768 767 767 768 770 772 772 772 774 776 778 782 786 789 789 789 791 794 796 799 801 803 805 807 810 811 812 814
832 832 831 830 829 829 828 827 826 825 825 823 822 821 820 819 818 816 815 813 812 810 809 807 805 803 801 799 797 795 792 790 787 784 781 778 776 773 770 769 767 765 763 761 760 759 760 761 761 761 761 761 760 761 763 764 764 763 763 764 765 768 770 771 771 773 775 776 779 784 788 789 788 789 791 794 798 801 801 801 803 806 808 810 811
834 833 832 832 831 831 830 829 828 827 826 824 823 822 821 820 819 817 816 814 813 811 809 808 806 804 802 800 798 796 793 791 788 785 782 777 774 770 768 766 764 762 760 759 758 757 757 757 757 757 758 757 756 756 757 758 759 759 759 760 761 763 766 768 770 771 772 773 776 780 784 785 785 786 787 788 792 796 798 799 800 802 804 807 809
836 835 834 834 833 832 831 830 829 828 827 826 825 823 822 821 820 818 817 815 813 811 810 808 806 805 803 801 799 797 795 792 789 785 781 777 773 769 765 763 761 759 756 755 755 754 754 754 754 755 755 753 753 752 753 754 755 755 755 756 758 759 761 763 765 767 769 770 772 774 777 780 781 782 782 783 787 792 795 796 797 799 803 805 807
838 837 836 836 835 834 833 832 831 830 828 827 826 825 824 822 821 819 818 816 814 812 811 809 807 806 804 802 800 798 796 794 789 784 779 775 772 767 763 760 758 756 753 752 752 751 751 750 750 751 749 749 749 750 750 751 752 752 753 753 754 755 756 759 761 763 765 766 768 771 773 774 776 778 779 780 784 788 790 793 795 796 799 801 803
840 839 838 838 836 835 835 834 832 831 830 829 828 826 825 823 822 820 819 817 815 813 812 810 809 807 805 803 801 799 797 793 788 782 777 773 769 765 761 758 755 752 750 749 748 748 747 747 747 746 745 745 747 748 747 747 748 749 749 750 751 751 752 754 756 759 760 761 764 768 769 768 770 773 775 776 780 782 785 789 793 793 794 796 798
841 840 840 839 838 837 836 835 834 832 831 830 829 827 826 824 823 821 820 819 817 815 813 812 810 808 806 804 802 800 797 793 787 781 776 771 767 763 759 756 753 750 748 746 746 745 744 744 743 742 742 742 743 744 743 742 744 745 745 746 747 747 748 750 753 755 756 757 758 761 764 765 765 767 770 772 776 779 782 785 788 789 790 791 793
842 842 841 840 840 839 838 837 836 834 833 832 830 829 827 826 825 823 822 820 818 817 815 813 811 810 808 806 803 801 798 793 787 781 776 770 766 762 758 755 752 749 747 745 744 743 742 741 739 738 738 738 739 739 738 738 739 741 741 742 743 744 746 748 750 753 754 754 754 756 759 762 762 763 766 768 771 775 778 781 783 785 787 789 791
844 843 843 842 842 841 840 839 837 836 835 834 832 830 829 827 826 825 823 822 820 819 818 816 813 811 809 807 804 801 798 794 788 782 776 771 766 762 759 756 753 750 747 745 743 741 739 738 736 735 734 734 734 734 734 734 735 736 737 738 740 741 743 745 748 750 750 750 751 753 756 760 763 763 763 765 767 770 773 777 781 784 787 789 791
845 844 844 843 843 842 841 840 839 838 837 835 833 831 830 829 827 826 825 824 823 821 819 818 815 813 811 808 805 802 799 795 790 784 779 773 767 763 760 758 754 750 748 745 742 739 737 735 733 732 731 730 730 730 730 731 732 733 734 735 737 738 740 743 745 746 747 748 750 752 755 759 762 763 762 763 766 769 773 777 780 784 787 788 790
846 846 845 845 844 844 843 841 840 839 838 836 835 833 832 831 829 828 827 825 824 822 821 819 817 815 813 810 806 803 800 796 791 786 782 776 770 766 763 760 756 752 748 745 742 739 736 733 731 728 727 726 725 726 727 728 729 730 731 733 734 736 738 740 742 744 745 747 749 752 755 757 760 761 761 762 764 767 771 775 777 780 782 784 788
847 847 847 846 846 845 844 843 842 841 840 838 837 836 834 833 831 830 828 827 825 824 823 821 819 817 814 812 809 806 802 798 793 789 785 780 775 771 767 763 759 754 749 746 743 739 735 732 728 725 723 721 721 722 723 725 726 727 729 731 733 734 736 738 740 743 745 747 749 751 753 755 756 757 759 760 762 765 768 771 773 775 777 780 784
848 848 848 848 847 846 845 844 843 842 842 840 839 838 836 835 834 832 830 829 827 825 824 822 820 818 816 813 811 807 803 800 796 791 787 783 779 775 771 766 762 757 752 748 743 739 734 729 725 721 718 716 717 718 720 723 724 726 728 730 732 734 735 737 739 741 743 746 748 750 751 752 754 755 757 759 760 763 766 768 770 772 774 776 779
850 850 850 849 848 848 847 846 845 844 843 842 841 840 839 837 836 834 832 830 829 827 825 824 822 820 817 814 812 808 805 801 798 794 790 786 782 778 774 770 765 761 757 751 746 740 734 729 724 718 713 712 713 716 718 720 722 725 727 728 729 732 734 736 738 739 742 744 747 749 751 752 753 755 757 758 759 763 766 768 769 770 771 774 777
851 851 850 850 849 849 848 847 847 846 845 844 843 842 840 839 837 836 834 832 830 829 827 825 823 821 818 816 813 810 807 803 800 796 792 788 784 781 777 773 769 765 761 756 750 744 739 733 727 719 714 712 712 714 717 719 722 724 725 726 728 731 734 736 738 739 741 744 746 749 751 753 754 755 757 758 759 762 765 766 769 770 771 773 777
852 852 851 851 850 850 849 848 848 847 847 846 844 843 842 841 839 838 836 834 832 830 828 826 824 822 820 818 815 812 809 805 802 798 794 791 787 784 780 777 774 770 765 759 755 750 745 740 734 726 721 718 716 716 718 721 723 727 728 728 730 733 735 737 738 740 743 745 747 749 752 753 755 757 758 759 761 762 764 766 768 770 772 774 776
853 852 852 852 851 850 850 849 848 848 848 847 846 844 843 842 841 839 838 836 834 832 830 828 826 823 821 819 816 814 810 807 804 801 797 793 790 787 783 780 777 773 769 765 761 757 751 747 741 733 728 727 726 724 724 725 727 730 732 733 734 736 737 739 741 742 744 746 748 751 754 755 757 758 760 761 763 763 764 765 768 771 774 776 777
854 853 852 852 852 851 851 850 849 849 848 847 847 846 844 843 842 840 839 837 835 833 831 829 827 825 822 820 818 815 812 809 806 803 799 796 793 789 786 783 780 776 773 769 766 762 757 753 747 740 736 736 735 732 731 731 732 735 737 738 739 740 740 742 744 745 747 748 750 753 756 758 759 760 762 764 765 766 765 766 769 772 775 778 779
854 853 852 852 852 852 851 850 850 849 848 848 847 846 846 844 842 841 840 838 837 835 833 831 829 827 824 822 819 817 815 811 808 805 801 798 795 792 790 787 783 780 776 773 770 766 762 757 752 748 744 741 739 738 738 738 738 741 743 744 745 745 745 746 748 749 750 752 753 756 758 761 762 763 765 766 767 768 768 768 772 774 776 778 781
854 853 853 853 852 852 851 851 850 850 849 848 847 847 846 845 844 843 841 839 838 837 835 833 831 829 827 824 822 819 817 814 811 807 804 800 797 795 792 789 787 783 780 777 773 769 765 761 757 754 752 748 745 744 743 744 744 746 748 749 750 751 751 752 752 753 755 756 757 759 762 763 765 766 767 769 770 770 771 771 774 777 779 780 783
854 854 853 853 853 852 851 851 850 850 849 849 848 847 847 846 844 843 842 841 839 838 836 834 832 830 828 826 824 822 819 816 813 810 807 803 800 797 794 791 789 786 783 781 777 773 770 766 763 760 758 756 754 751 749 750 750 751 753 754 755 755 756 756 756 757 759 761 762 764 765 767 768 770 771 772 773 775 774 774 775 779 781 782 785
855 854 854 854 853 853 852 851 851 850 850 849 848 848 847 846 845 844 843 842 840 839 838 836 834 832 830 828 826 824 821 818 816 813 811 807 804 801 797 794 791 789 786 784 781 778 774 771 768 766 763 762 761 759 758 758 758 758 759 759 760 760 761 760 760 761 764 765 766 768 769 770 771 773 774 776 777 779 779 778 779 782 783 785 788
856 856 855 855 854 853 853 852 851 851 850 850 849 848 847 847 846 845 844 843 842 840 839 838 836 835 833 831 829 826 823 821 819 817 815 812 809 805 802 798 795 792 790 787 784 781 778 775 774 772 770 769 768 767 767 766 766 765 766 765 765 765 765 765 765 766 768 769 770 771 773 774 775 776 777 779 781 782 782 782 783 785 787 789 792
857 857 856 856 855 854 854 853 852 852 851 850 850 849 848 847 847 846 845 844 843 842 840 839 838 836 835 833 831 829 827 824 822 820 817 815 812 809 806 803 800 797 794 790 786 784 783 782 781 780 778 777 776 775 774 774 773 772 772 771 770 770 769 769 770 771 772 773 774 775 775 776 777 778 780 781 783 785 786 786 788 789 791 793 796
858 858 857 856 856 855 855 854 853 853 852 851 850 850 849 848 848 846 846 845 844 843 842 841 839 838 837 835 833 832 830 827 825 822 819 817 815 813 810 807 804 801 798 793 790 790 790 789 788 787 785 784 783 783 782 781 780 779 778 777 776 776 776 776 776 777 778 778 779 779 779 779 780 781 782 783 785 787 789 790 792 793 794 796 798
859 858 858 857 857 856 856 855 854 854 853 852 851 851 850 849 848 847 847 846 845 844 844 842 841 839 838 837 835 833 831 829 827 824 822 820 818 816 813 810 808 805 802 798 796 796 796 795 794 793 791 790 790 789 788 787 786 786 784 784 784 783 783 783 783 782 783 783 783 783 783 784 785 785 785 786 788 789 791 792 794 795 796 798 800
859 859 858 858 857 857 856 856 855 854 854 853 852 851 850 850 849 848 848 847 846 845 844 843 842 840 839 838 836 834 833 831 828 826 824 822 820 818 816 814 811 809 806 803 801 802 801 800 800 799 797 796 796 795 794 793 792 791 790 789 790 789 789 788 788 787 787 787 787 787 787 788 788 788 788 789 790 791 793 794 796 797 798 800 802
860 859 859 858 858 857 857 856 855 855 854 854 853 852 851 851 850 849 848 847 846 845 845 844 843 841 840 839 837 836 834 832 830 828 826 824 823 821 819 817 815 813 810 808 807 807 806 805 805 804 802 801 801 800 799 798 797 796 795 794 794 794 793 793 792 792 792 792 792 791 791 791 791 791 791 792 793 794 796 797 799 799 800 802 804
860 859 859 859 858 858 857 856 856 855 855 854 854 853 852 851 850 849 848 847 846 846 845 844 843 842 841 839 838 837 835 834 832 830 828 826 825 823 821 819 817 816 814 813 812 811 810 810 809 808 807 806 805 804 803 803 802 801 800 799 799 798 798 797 797 797 796 796 795 795 795 795 795 795 795 795 796 797 798 799 800 801 802 804 805
860 859 859 859 859 858 858 857 856 856 855 854 854 853 852 851 851 850 849 848 847 846 846 845 844 843 842 840 839 838 836 835 833 832 830 828 826 824 822 821 821 820 818 817 816 815 815 814 813 812 811 810 809 809 808 807 806 805 804 804 803 802 802 802 801 801 801 800 800 799 799 799 799 799 799 799 799 800 800 801 802 803 804 806 807
860 860 860 859 859 858 858 857 856 856 855 855 854 853 852 852 851 851 850 849 847 846 846 845 844 843 842 841 840 839 837 836 835 833 832 830 828 826 825 824 824 823 822 821 820 819 818 817 816 815 814 813 813 812 811 810 809 808 808 807 806 806 806 805 805 805 804 804 804 804 803 803 803 803 803 803 803 804 804 805 805 805 806 808 809
860 860 860 860 859 858 858 857 857 856 856 854 853 852 852 852 852 851 850 849 848 847 846 845 844 843 842 841 840 839 838 837 836 834 833 832 830 829 828 827 826 825 825 824 823 822 821 820 819 818 817 817 816 815 814 813 812 812 811 810 810 809 809 808 808 808 808 808 808 808 807 807 807 807 807 807 807 807 808 808 808 808 809 810 811
860 860 860 859 859 858 858 857 857 857 856 854 853 852 852 851 851 851 850 849 848 847 846 846 845 844 843 842 841 840 839 838 836 835 834 833 832 831 830 829 828 827 827 826 825 825 824 823 822 821 820 820 819 818 817 816 815 815 814 814 813 813 812 812 812 811 811 811 811 811 811 811 811 811 810 810 810 810 810 811 811 811 811 812 813
860 860 860 859 859 859 858 857 857 857 856 855 853 852 851 851 851 851 850 849 848 847 846 846 845 844 844 842 841 840 839 838 837 836 835 834 834 833 832 831 830 829 829 828 827 827 826 825 825 824 823 822 822 821 820 819 819 818 817 817 816 816 815 815 815 814 814 814 814 813 813 813 813 813 812 812 812 812 812 813 813 813 813 813 814
860 860 860 859 859 858 858 857 857 856 856 855 853 852 852 851 851 851 850 849 848 847 846 846 845 845 844 843 842 841 840 839 838 837 836 836 835 834 833 833 832 831 830 830 829 829 828 827 827 826 825 825 824 823 823 822 821 820 820 819 819 819 818 818 818 817 817 816 816 816 816 815 815 815 814 814 814 814 814 814 814 814 815 815 815
860 860 860 859 859 858 858 857 857 856 856 855 853 852 852 851 851 851 850 849 848 847 846 846 846 845 845 844 843 842 841 840 839 838 837 837 836 835 835 834 833 833 832 831 831 830 829 829 828 828 827 827 826 825 824 824 823 823 822 822 822 821 821 820 820 819 819 818 818 818 817 817 817 816 816 816 815 815 815 816 816 816 817 817 817
860 860 859 859 859 858 858 857 857 856 856 855 854 853 852 851 851 851 850 849 848 847 846 846 846 845 845 844 843 842 841 841 840 839 838 838 837 836 836 835 834 834 833 832 832 831 830 830 829 829 828 828 827 827 826 826 825 825 824 824 824 823 823 822 822 821 821 820 820 819 819 819 818 818 818 818 817 817 817 817 818 818 818 819 819
859 859 859 859 859 858 858 857 857 856 855 855 854 853 852 851 851 851 850 849 849 847 846 846 846 846 845 845 844 843 842 841 840 840 839 838 838 837 836 836 835 835 834 834 833 832 831 831 830 830 829 829 828 828 827 827 826 826 826 825 825 825 824 824 824 823 823 822 821 821 820 820 820 819 819 819 819 819 819 819 819 820 820 820 821
859 859 859 859 859 858 858 857 857 856 855 855 854 853 852 852 851 851 850 850 849 847 847 846 846 846 845 845 844 843 843 842 841 840 839 839 838 838 837 837 836 836 835 835 834 833 832 832 831 831 830 830 829 829 828 828 828 827 827 827 826 826 826 825 825 825 824 824 822 822 822 821 821 820 821 821 821 821 821 821 821 821 821 821 822
859 858 858 858 858 858 858 857 857 856 855 855 854 854 853 852 851 851 851 850 849 848 847 846 846 846 845 844 844 844 843 842 841 840 840 839 839 838 838 837 837 836 836 835 835 834 833 832 832 831 831 831 830 830 829 829 828 828 828 828 827 827 827 827 826 826 826 825 824 823 823 822 822 822 822 822 822 822 822 822 822 822 822 822 823
858 858 857 858 857 857 857 857 857 856 856 855 854 854 854 853 852 852 851 850 849 848 847 846 846 845 845 844 844 844 843 842 841 841 840 839 839 839 838 838 837 837 836 836 835 835 834 833 833 832 831 831 830 830 830 829 829 829 828 828 828 828 827 827 827 827 827 826 826 825 824 824 823 823 823 823 823 823 823 823 823 823 823 823 823
857 857 857 857 857 857 857 856 856 856 855 855 854 854 854 853 853 852 851 850 849 849 848 847 846 845 844 844 844 843 843 842 842 841 840 840 839 839 839 838 837 837 836 836 836 835 835 834 833 832 832 831 831 830 830 830 830 830 829 829 828 828 828 828 828 828 827 827 827 826 825 825 824 824 824 824 824 824 824 824 824 824 824 824 824
856 856 856 856 856 856 856 855 855 855 855 854 854 853 853 853 853 852 851 850 850 849 848 847 846 845 845 844 844 843 843 842 842 841 841 840 839 839 839 838 838 837 836 836 836 836 835 834 834 833 832 832 832 831 831 831 830 830 830 829 828 828 828 828 828 828 828 828 827 827 826 826 825 825 825 825 825 825 825 825 825 825 825 825 825
855 855 855 855 855 855 855 855 854 853 854 854 853 852 852 852 852 851 850 850 850 849 848 847 847 846 845 844 844 843 843 842 842 841 840 840 839 839 839 838 838 837 837 836 836 835 835 835 834 834 833 833 832 832 832 831 831 830 829 829 828 827 827 827 827 828 828 828 827 827 827 826 826 826 826 826 826 826 826 826 826 826 826 826 826
854 854 854 854 854 854 854 854 853 853 852 852 852 851 851 851 851 850 850 850 850 849 848 848 847 847 846 845 844 843 843 842 842 841 841 840 839 839 839 838 838 837 837 836 836 835 835 834 834 834 833 833 833 832 832 831 831 830 829 828 828 827 827 827 827 828 828 828 828 827 827 827 827 827 826 826 826 826 826 826 826 826 826 826 826
Wind_Speed
19 20 20 21 19 19 23 22 20 20 22 21 21 22 22 21 21 21 21 22 23 24 24 24 24 24 23 23 21 19 18 17 16 18 20 20 19 19 21 21 21 22 22 23 25 25 23 23 23 24 24 25 26 27 27 28 27 28 28 27 28 28 26 20 10 8 17 26 28 27 27 30 33 34 35 35 36 35 30 26 25 26 30 32 32
17 20 22 23 22 22 24 24 23 23 25 24 24 24 24 23 23 22 22 22 21 22 24 23 24 24 24 24 23 22 21 20 19 19 20 22 21 21 21 21 22 22 22 23 24 24 22 22 22 22 24 26 26 26 27 28 28 28 29 28 27 28 27 24 17 11 11 18 25 26 26 30 32 33 37 39 38 36 33 29 27 28 31 32 33
19 21 24 25 25 24 25 26 26 26 27 27 27 26 25 26 25 24 24 23 22 22 23 23 24 23 23 23 23 24 26 24 22 21 20 21 22 23 23 23 22 22 22 23 24 23 23 24 25 25 25 25 26 27 27 28 29 29 29 29 28 27 29 29 24 17 14 16 22 25 29 33 32 33 37 38 37 36 33 32 30 30 32 33 33
23 24 26 27 27 26 27 27 27 27 28 28 28 28 27 27 27 26 25 25 23 23 23 23 23 22 22 23 23 25 26 23 21 20 20 20 21 21 22 22 22 21 21 22 23 24 25 25 25 26 26 25 25 28 29 29 30 29 29 30 29 27 29 32 31 26 20 19 21 25 31 34 32 33 36 35 36 36 34 32 31 30 32 33 32
25 26 27 27 28 28 27 27 28 29 29 28 28 28 27 28 27 27 27 26 24 25 25 24 23 23 23 23 23 24 22 20 21 21 21 23 23 21 20 20 21 22 23 24 24 24 25 26 24 24 26 26 27 27 29 30 31 31 30 31 31 29 28 29 28 23 16 17 21 24 27 28 25 27 32 33 35 34 31 31 31 30 30 31 31
27 28 27 27 28 28 28 27 28 29 28 28 28 27 27 27 27 27 27 27 26 25 25 24 23 23 24 23 23 22 20 22 25 26 26 27 27 25 22 21 21 21 24 26 26 25 26 26 24 22 23 25 28 28 29 31 31 31 31 32 32 29 26 24 23 21 17 17 20 19 19 23 24 25 29 34 36 34 29 29 30 31 32 32 32
28 28 27 27 27 28 28 27 27 27 27 27 26 27 27 26 26 26 26 26 26 27 26 25 23 23 24 24 24 23 21 25 29 30 30 30 29 28 26 24 23 21 22 24 26 26 26 25 24 23 24 25 29 30 30 31 31 31 32 33 30 25 24 23 20 23 21 18 20 19 17 21 26 28 28 30 33 32 29 28 27 29 32 34 34
28 27 26 26 27 26 26 25 25 25 26 26 26 27 27 26 25 25 25 25 26 27 28 26 24 23 23 24 25 23 22 26 32 34 34 33 31 30 28 26 25 24 22 23 24 25 25 25 26 27 27 27 28 30 32 32 32 32 32 32 29 24 25 24 19 22 22 18 19 20 17 17 23 27 24 23 25 27 29 31 29 29 32 33 33
27 27 26 26 25 25 25 24 25 25 25 24 26 27 27 27 26 25 26 25 25 26 27 28 27 25 24 24 25 24 21 26 36 39 37 35 33 31 29 27 27 27 26 24 23 23 23 24 25 27 27 26 27 31 34 35 34 33 32 31 29 26 26 25 21 21 22 19 19 20 18 17 22 26 23 24 28 28 29 32 31 32 33 32 32
27 27 26 25 24 24 24 25 24 25 25 25 25 26 27 27 27 26 26 26 26 25 27 30 29 27 26 25 25 24 20 27 40 41 35 34 33 31 31 29 27 28 28 25 23 23 23 23 23 23 25 27 29 31 34 36 35 35 33 31 31 29 27 26 24 23 22 20 21 23 19 17 23 28 28 29 31 28 28 29 29 31 30 26 27
26 25 24 23 23 23 24 25 25 25 25 25 25 25 26 27 27 26 26 27 27 25 26 30 30 29 28 25 26 24 21 29 42 43 36 33 32 31 31 30 27 28 28 25 23 23 22 22 22 22 25 28 30 31 31 33 34 34 34 33 33 33 31 28 26 27 26 23 22 23 21 19 25 31 31 31 31 29 29 29 27 28 28 22 18
25 24 23 23 24 24 24 25 25 25 25 26 25 25 25 27 28 26 26 28 28 26 26 28 29 30 29 27 27 25 25 34 44 44 38 34 31 30 30 29 27 27 27 25 24 24 23 22 22 24 26 27 29 30 30 31 33 34 35 36 35 34 34 33 31 29 28 26 24 24 25 23 26 31 33 33 33 32 31 30 29 28 30 27 21
22 23 24 25 26 26 25 25 25 25 25 26 26 25 25 27 27 25 26 28 29 27 27 27 28 29 29 28 28 26 28 38 46 44 40 36 30 27 27 28 27 25 25 24 23 23 23 23 23 24 25 26 27 28 29 31 33 34 36 36 34 33 33 34 35 33 31 30 28 28 30 28 27 33 36 35 35 32 28 27 29 30 30 30 28
22 23 24 25 26 25 25 26 26 26 26 26 27 26 26 27 27 24 25 28 29 27 27 27 28 29 28 28 29 28 31 40 46 45 43 38 30 26 28 28 26 24 24 23 21 22 24 24 24 25 26 26 26 27 29 32 33 33 34 35 34 34 34 34 35 34 33 32 29 28 31 29 29 34 35 35 35 34 32 29 28 30 33 32 31
23 24 23 24 25 25 24 25 26 26 26 26 27 27 26 27 27 25 24 26 27 25 26 28 28 29 30 30 29 29 33 41 45 45 45 40 31 27 27 28 25 22 21 20 18 19 21 23 24 27 27 27 29 29 30 32 32 31 30 30 31 32 33 32 32 31 30 29 27 28 29 27 28 30 31 33 35 35 38 35 28 28 32 29 25
23 24 23 23 24 24 24 25 25 25 26 27 27 27 27 27 27 26 24 25 24 23 25 28 29 29 31 32 31 31 34 40 44 45 45 43 36 30 28 27 27 25 23 21 19 17 18 19 21 24 26 28 30 30 30 31 29 27 26 26 27 29 30 30 29 28 27 26 25 27 28 27 26 24 24 29 32 32 32 28 25 27 28 23 19
23 23 22 23 24 23 23 25 25 25 27 29 28 27 27 27 26 25 24 25 24 23 23 26 28 29 30 32 32 31 34 39 42 43 44 43 40 36 30 27 28 29 27 24 22 20 18 18 19 21 22 26 29 29 30 29 26 27 27 25 25 26 26 25 24 22 23 23 22 23 25 26 25 23 23 26 28 29 27 23 24 30 28 19 14
22 22 22 23 24 23 22 25 25 25 27 29 28 27 26 26 25 24 23 23 23 22 21 23 26 28 28 30 31 31 33 37 40 40 41 41 40 39 34 29 29 31 30 28 26 23 20 18 19 20 21 25 29 30 31 28 26 27 28 26 25 24 23 23 21 18 18 19 20 21 22 22 22 23 25 25 23 25 27 26 28 32 28 21 17
20 21 20 22 23 23 22 24 25 25 26 28 28 26 26 25 25 24 23 22 22 22 20 21 24 27 28 29 31 32 34 36 39 38 38 38 38 37 36 33 31 32 32 31 31 31 27 22 18 18 22 26 27 27 28 28 28 29 30 28 26 23 23 24 24 22 22 21 20 19 17 16 17 19 22 23 21 21 24 28 30 30 28 27 27
19 19 18 19 21 23 23 23 24 24 25 27 27 25 25 25 25 25 25 24 23 23 21 21 22 25 27 29 31 32 34 36 38 37 36 36 35 35 35 35 32 31 31 31 33 35 35 33 28 16 18 26 28 28 28 28 28 29 31 30 26 23 22 23 24 24 25 24 22 20 18 17 16 16 16 17 19 20 22 24 26 27 28 29 28
17 17 17 17 19 22 23 23 23 23 23 26 27 25 24 25 25 25 25 25 24 24 23 22 22 23 26 28 30 32 34 36 37 37 35 35 34 33 34 34 31 28 30 32 34 35 36 38 36 25 7 10 20 24 25 26 25 23 25 27 26 24 24 24 25 25 26 26 24 22 21 19 17 17 15 14 15 17 20 21 21 22 26 29 27
17 16 16 16 17 19 21 21 22 22 22 24 26 25 23 23 24 24 24 24 24 24 23 23 23 23 25 27 29 32 34 36 36 36 35 34 33 31 31 32 31 28 29 33 35 35 34 36 37 34 28 20 19 22 23 23 21 19 20 23 24 25 26 26 27 27 27 27 26 25 23 22 21 20 19 18 17 15 16 19 19 18 21 26 28
16 16 15 16 16 16 17 19 20 20 20 21 24 25 24 23 22 22 23 24 24 23 23 24 24 25 26 27 28 31 34 35 36 35 34 33 32 31 29 29 29 30 30 31 32 33 34 35 35 36 36 33 30 29 27 25 23 22 23 24 25 27 28 28 28 28 28 28 28 27 26 25 26 25 24 24 23 22 21 21 21 21 21 23 24
14 14 13 14 15 14 15 17 18 18 18 18 20 23 25 24 23 22 22 23 24 24 23 24 25 26 26 27 27 29 32 34 36 35 35 33 32 31 30 28 27 28 29 30 30 32 33 33 34 35 35 34 33 32 31 29 28 26 24 24 25 26 27 28 28 29 29 28 28 27 26 27 29 29 29 29 29 29 30 30 29 27 26 25 24
11 11 11 12 13 12 12 15 17 18 17 17 17 20 23 24 24 23 22 22 23 24 24 24 24 25 26 27 27 27 30 33 35 36 36 35 33 31 29 28 27 27 27 28 29 30 31 31 32 33 34 34 34 33 32 30 29 26 24 23 23 24 25 27 27 28 27 27 26 26 25 26 28 28 28 29 30 32 34 35 33 31 30 30 29
9 8 8 10 11 10 10 13 15 16 17 17 16 17 20 22 23 23 23 23 23 23 24 24 23 24 25 27 27 26 28 31 33 35 37 36 34 32 30 28 27 27 26 26 27 27 29 31 32 34 35 35 36 35 33 31 28 26 24 23 23 24 24 25 27 28 27 26 27 27 26 26 27 28 28 28 29 30 32 34 34 33 33 34 34
9 9 7 8 8 7 8 11 13 13 14 16 16 16 17 18 19 21 21 22 22 23 23 23 23 22 23 25 27 27 28 30 31 31 34 37 36 33 30 27 26 26 25 25 26 28 29 30 31 33 34 34 35 37 36 33 30 28 26 24 24 24 24 25 27 28 26 26 26 26 26 26 26 26 26 27 28 29 29 32 34 32 32 34 34
15 17 15 13 10 6 5 7 10 11 11 12 14 15 15 15 16 17 18 19 20 21 21 22 23 22 21 22 25 27 28 29 29 27 29 33 35 32 29 27 25 24 24 23 23 25 28 29 30 33 34 35 35 37 37 36 35 33 30 27 25 24 23 24 26 25 23 23 24 24 23 24 24 25 25 26 26 28 29 32 34 33 32 33 31
18 20 19 19 17 13 8 5 6 8 9 10 11 12 12 13 13 14 15 17 19 19 19 20 21 22 22 21 22 24 26 27 27 24 23 26 31 31 28 25 24 24 24 22 21 25 28 30 32 33 34 35 35 35 35 35 35 35 33 30 28 26 25 25 25 23 21 21 22 22 22 21 21 22 22 21 22 25 28 31 32 31 31 31 28
16 16 16 17 20 20 17 12 7 5 6 8 8 9 10 11 12 13 13 14 17 19 18 18 19 21 23 23 21 21 23 24 25 25 23 22 26 29 28 25 24 24 25 26 27 30 31 32 32 32 32 32 32 32 31 32 32 33 33 33 32 29 28 28 27 25 23 22 22 21 22 22 22 21 21 21 21 24 27 29 30 30 31 31 27
14 15 14 15 17 19 20 19 15 11 8 8 9 9 9 9 10 12 12 11 14 16 18 20 20 20 21 22 21 21 22 22 24 26 24 21 23 27 29 27 26 25 26 29 31 31 30 29 29 29 29 30 29 28 29 29 29 29 30 32 32 30 29 28 26 24 22 20 19 19 19 20 20 20 22 23 23 24 25 27 27 28 29 29 27
10 12 14 14 15 16 17 18 18 16 14 13 14 15 14 11 11 12 13 12 13 14 16 20 23 22 21 21 20 20 22 23 24 25 24 22 23 25 26 28 27 26 27 30 30 29 27 27 26 26 27 27 27 27 27 27 27 27 28 29 28 28 27 26 25 24 24 23 22 20 20 19 19 19 22 23 23 22 23 24 26 27 28 29 27
10 9 11 12 12 14 16 16 16 16 16 16 17 19 20 17 14 15 16 15 14 15 16 19 22 24 23 20 18 19 21 22 23 23 22 23 24 23 23 25 26 27 28 29 28 26 25 25 25 24 24 24 24 25 25 25 25 25 26 26 25 25 25 24 23 23 24 24 24 24 23 23 23 23 24 25 25 25 25 26 28 28 28 28 26
11 9 9 11 11 11 13 14 14 15 15 15 15 17 19 18 16 17 18 16 15 16 16 18 20 23 23 21 18 18 21 22 22 21 21 22 24 24 23 23 24 25 27 27 25 23 23 23 23 23 23 23 23 24 24 24 24 24 24 23 23 23 22 22 22 22 23 23 24 24 24 24 24 25 26 26 26 27 26 26 27 28 27 26 24
11 9 8 8 10 10 10 11 13 15 15 14 14 15 16 15 15 16 17 15 14 14 14 16 19 21 22 21 18 17 20 21 21 21 22 22 22 24 25 24 24 23 24 24 23 22 22 22 21 21 21 22 22 23 23 23 23 23 22 22 22 21 21 21 20 19 18 19 20 20 20 21 22 23 24 25 25 25 23 22 22 22 23 24 25
10 11 9 8 11 11 8 8 11 13 14 14 14 14 14 14 13 14 15 14 12 12 12 13 16 19 20 19 17 16 18 21 21 21 21 21 21 22 24 23 22 21 21 20 20 20 20 20 20 20 20 21 21 21 21 21 20 20 19 19 19 19 19 19 18 17 17 16 16 15 15 16 16 16 19 21 22 22 21 20 19 21 23 25 27
12 13 11 9 11 11 9 7 9 11 11 11 13 14 14 13 12 13 14 12 10 10 11 12 15 18 20 19 16 15 16 19 20 20 20 20 21 21 21 20 19 19 19 18 18 18 18 17 18 18 19 19 19 19 19 19 19 18 18 18 17 17 17 17 17 17 17 16 16 16 15 15 13 13 15 18 19 19 19 18 19 23 25 26 25
13 12 10 8 9 10 8 7 9 10 10 10 12 13 14 13 11 10 12 12 10 9 10 11 14 18 19 18 15 14 14 17 20 21 20 21 21 20 18 18 18 17 16 16 16 16 16 15 15 16 17 17 18 18 19 18 18 19 19 19 18 18 17 17 16 16 16 16 16 16 15 15 14 14 15 16 16 18 19 19 20 22 24 24 23
9 9 6 6 8 10 8 7 9 10 11 11 11 11 12 13 10 8 9 12 11 9 8 10 12 15 18 18 15 13 13 15 18 20 20 20 20 19 17 16 16 16 14 14 14 14 14 13 13 13 14 15 16 17 17 17 17 17 18 18 18 18 18 17 16 15 15 14 14 14 14 15 15 15 15 15 15 16 18 18 19 20 20 19 20
7 8 6 6 9 9 7 8 8 9 11 12 11 11 12 11 9 6 6 9 12 11 9 9 11 14 16 16 13 11 12 14 16 17 17 17 18 18 17 15 15 15 14 13 13 13 12 11 11 11 12 12 13 14 14 14 15 15 15 16 17 17 17 17 16 15 14 13 13 13 12 11 12 12 13 14 14 14 15 16 17 18 18 16 17
6 8 7 7 8 7 8 9 8 7 7 9 11 13 15 11 6 6 6 8 11 12 11 10 10 12 14 13 11 9 10 12 14 14 14 15 15 16 15 14 13 13 13 13 13 12 11 11 10 10 10 10 11 11 10 10 11 12 12 13 14 15 14 14 15 14 13 12 12 11 11 10 11 11 12 13 12 12 12 13 15 17 18 18 18
5 8 8 9 10 7 7 8 9 6 7 10 11 13 17 13 4 4 8 10 11 11 11 10 10 11 12 12 11 9 8 10 12 13 13 13 13 13 14 13 12 11 12 12 11 11 10 9 9 9 10 10 11 12 11 9 9 10 10 10 11 12 12 11 11 11 11 10 9 10 10 11 11 12 12 12 11 10 10 12 13 15 17 18 19
6 8 8 10 11 9 7 9 9 9 11 14 13 13 15 13 6 5 8 10 10 10 10 9 8 9 10 11 11 9 7 8 10 11 11 12 12 11 11 11 11 10 11 11 9 9 9 9 8 9 10 10 10 12 12 10 8 8 8 8 9 10 11 11 11 11 11 11 9 8 9 9 8 9 10 11 12 13 13 14 14 15 16 17 17
5 7 7 8 9 9 9 10 11 11 12 13 14 14 15 14 9 7 8 9 11 11 10 8 8 8 9 10 10 9 7 7 8 9 9 10 10 9 9 9 10 10 11 11 10 8 9 9 9 8 9 10 9 9 11 11 9 8 7 5 6 8 9 11 12 11 11 11 8 6 7 8 6 6 7 10 12 14 14 13 13 13 14 14 14
4 5 7 7 8 10 10 9 10 12 12 12 14 14 13 14 16 11 6 8 10 11 10 9 9 9 9 9 8 8 7 7 7 7 7 8 9 9 8 8 9 9 9 10 10 9 8 8 8 7 8 9 8 8 9 9 8 8 7 5 5 5 6 7 8 9 10 11 10 7 6 7 7 7 8 9 10 11 11 12 12 11 10 10 11
4 3 4 4 4 8 9 8 9 11 11 12 14 13 12 15 18 14 7 6 8 9 9 9 9 8 8 8 6 6 8 8 6 5 5 6 7 7 8 8 8 8 8 7 8 8 7 6 6 7 7 7 6 6 7 8 6 6 6 6 6 5 4 4 5 6 7 10 12 10 8 9 10 9 9 8 8 8 9 10 10 10 10 9 8
1 1 1 1 1 3 5 7 8 9 9 11 13 12 12 14 16 13 9 6 7 7 8 9 8 7 8 8 6 6 8 8 5 4 5 5 5 6 8 8 7 7 8 7 6 6 6 6 6 7 8 8 6 5 6 8 7 5 5 5 5 6 5 4 4 5 5 8 10 11 10 10 11 11 10 8 7 7 8 8 6 5 7 9 10
3 3 1 2 1 4 4 5 7 8 8 10 11 11 12 13 14 13 13 14 12 8 6 7 6 6 7 8 6 6 7 8 6 4 5 5 4 4 6 7 6 6 8 6 4 5 7 9 9 8 7 8 7 5 5 8 8 6 5 5 4 4 5 5 2 3 4 5 7 9 9 9 9 9 9 9 9 8 9 10 8 4 4 5 7
6 6 2 4 2 6 4 3 5 6 6 7 8 9 9 10 11 12 13 14 14 12 10 8 7 6 7 8 8 7 7 7 5 3 4 5 4 3 5 7 7 6 6 5 4 6 8 9 10 8 6 7 7 5 5 7 8 7 8 8 7 6 5 4 2 1 3 4 4 5 7 8 8 7 7 7 7 7 7 9 8 6 4 3 3
6 5 1 3 3 7 4 1 2 3 4 5 7 8 7 6 7 10 11 11 12 14 14 12 9 8 8 9 9 8 7 6 5 4 3 3 3 3 4 6 7 7 6 4 4 6 7 7 8 8 7 6 6 5 5 7 9 10 10 9 7 5 2 1 1 1 2 4 4 4 4 4 6 6 6 5 5 4 4 4 4 4 5 5 4
5 5 3 1 2 6 6 4 1 2 2 2 5 7 6 4 4 7 9 9 10 13 14 13 12 11 11 11 11 9 7 6 6 5 3 2 2 2 3 4 6 8 7 5 4 5 5 5 6 7 6 5 6 6 6 7 9 11 10 8 6 4 2 0 1 2 2 2 3 4 4 4 4 4 5 5 3 2 2 2 0 2 3 4 4
Wind_Direction
50 49 45 42 44 43 34 28 29 29 23 23 26 23 18 15 11 8 6 4 2 358 356 359 358 357 356 350 340 329 319 310 308 308 306 303 294 286 282 277 273 273 272 272 271 267 259 253 253 252 248 244 241 240 236 234 231 225 224 224 222 224 220 215 221 213 205 205 201 197 193 188 188 194 197 196 195 197 201 205 205 205 203 201 199
48 46 44 43 42 39 32 27 27 28 25 25 27 23 20 19 15 13 11 8 5 1 358 359 358 357 1 3 358 351 342 330 321 314 309 307 302 297 292 284 278 274 270 268 268 267 260 251 249 248 242 241 242 241 237 235 231 226 225 223 221 223 221 219 223 214 194 199 197 188 186 187 187 191 195 196 194 195 199 201 203 205 205 203 201
45 45 45 42 38 35 30 28 28 28 28 28 26 24 22 20 18 16 13 10 8 6 2 0 359 357 359 2 360 358 358 353 346 338 327 317 310 305 297 288 282 278 273 270 267 264 258 251 248 243 238 240 243 241 237 234 231 229 227 225 222 223 221 218 218 215 200 194 190 178 178 186 189 191 196 199 197 195 197 201 203 204 206 205 204
47 45 43 39 36 32 30 29 29 28 28 27 24 24 22 20 19 18 16 13 11 10 9 5 3 0 359 359 357 358 2 3 0 359 353 345 335 324 310 296 286 279 275 273 268 264 258 254 250 244 238 236 237 239 239 235 232 230 231 230 226 224 222 217 215 214 205 194 190 183 180 184 188 191 195 198 197 195 196 201 202 203 205 206 207
47 45 42 39 34 32 30 30 29 28 27 25 23 22 21 19 19 19 18 17 15 13 12 8 5 4 3 360 358 1 4 2 360 357 352 348 344 339 328 312 299 286 277 270 266 264 261 257 250 242 238 236 235 237 238 235 232 230 230 231 229 227 225 219 212 208 201 188 190 191 184 183 187 190 193 194 192 191 194 200 202 202 204 206 208
45 43 41 39 36 32 30 29 29 28 26 24 22 21 20 19 18 18 18 18 16 15 12 9 7 6 5 2 1 4 1 354 355 352 343 337 334 331 328 321 313 300 286 277 272 269 266 261 249 234 231 237 240 238 236 235 231 227 227 229 230 227 227 224 210 200 197 188 191 197 189 186 188 189 194 196 190 186 189 196 199 201 204 206 207
44 41 39 39 37 33 30 28 29 28 26 24 23 21 20 19 18 17 17 17 18 16 13 11 9 6 5 4 5 8 1 353 354 350 342 337 331 326 322 317 313 308 296 287 282 276 268 261 253 240 230 234 241 240 236 234 231 229 228 229 231 226 225 227 208 194 198 188 186 201 197 189 192 191 193 196 191 187 187 187 190 198 203 206 206
43 39 37 38 36 33 31 29 29 28 27 27 26 25 23 21 19 17 16 16 17 16 15 13 11 8 6 5 6 8 4 358 357 352 346 342 335 328 322 314 308 304 298 291 285 279 273 263 256 250 240 233 234 234 233 232 230 231 230 228 230 225 221 225 207 191 198 190 185 201 201 186 191 194 192 189 189 195 195 189 187 192 199 205 207
42 38 36 37 35 32 30 29 29 27 26 27 29 29 27 24 21 19 18 17 14 15 16 15 13 9 7 5 6 8 5 359 357 355 349 345 339 331 324 316 307 300 296 293 287 282 278 268 258 252 249 244 237 231 231 232 230 230 230 226 224 220 215 216 205 190 191 187 186 198 198 184 186 192 191 188 192 200 199 191 190 192 195 200 205
42 38 36 35 33 32 30 28 27 26 25 25 27 28 27 26 23 20 20 18 16 16 16 15 14 11 7 5 4 6 5 356 354 354 351 347 340 332 325 319 311 302 295 291 287 284 281 276 265 252 248 251 249 241 237 235 231 230 231 227 222 218 213 210 206 197 192 189 191 193 190 184 186 190 192 191 194 199 197 192 190 191 190 190 197
42 38 37 33 31 32 31 28 25 25 26 25 25 26 25 25 24 24 22 19 17 17 16 16 15 11 8 6 3 4 1 353 353 354 352 349 344 334 326 321 315 306 297 290 285 283 281 279 274 264 256 254 251 246 243 240 236 235 235 234 229 222 215 210 205 197 191 192 197 196 191 187 187 190 191 188 190 195 197 197 193 185 184 184 187
42 39 36 34 33 32 31 28 24 24 26 26 24 25 25 24 24 26 25 21 19 20 18 15 14 12 10 8 5 4 359 354 356 357 355 352 347 338 329 324 320 311 300 291 283 281 281 278 275 271 265 255 244 240 243 242 238 236 236 235 233 226 221 218 212 201 192 191 196 200 203 198 188 189 191 189 191 194 194 198 197 188 185 187 187
42 40 40 38 36 33 30 26 23 24 26 25 23 23 25 25 23 26 28 24 21 22 20 15 14 13 12 9 6 5 0 358 360 0 359 356 351 346 342 337 330 322 312 299 286 281 280 277 274 270 266 258 244 239 244 241 235 233 233 233 233 229 222 218 216 213 207 201 196 201 211 208 194 193 195 191 192 194 191 194 199 195 190 191 193
45 43 43 41 37 34 31 28 26 26 27 26 24 24 26 25 23 24 28 27 24 24 21 18 17 16 15 12 9 7 4 3 4 4 3 0 356 356 357 351 342 334 327 315 300 288 283 277 273 269 265 258 248 242 245 247 243 238 233 231 231 228 221 217 219 221 219 213 209 212 218 215 204 200 199 194 193 195 194 195 199 198 195 196 198
49 45 44 43 40 37 34 31 30 30 29 27 27 27 27 26 24 24 26 27 26 26 25 22 21 21 19 16 14 10 7 7 8 8 7 4 2 3 2 358 355 352 344 332 318 302 291 282 276 271 265 259 252 247 246 246 244 238 229 222 218 215 212 211 212 214 215 214 215 217 219 217 209 203 200 198 199 197 194 196 203 202 196 193 191
53 47 45 45 42 39 37 34 33 33 33 29 28 29 28 27 26 25 25 25 25 27 29 26 23 22 20 18 16 13 10 11 12 12 11 9 9 9 3 359 1 4 0 350 337 317 299 288 279 274 268 260 252 247 243 236 228 219 211 202 195 194 195 199 204 208 211 213 215 219 222 219 212 203 197 195 195 193 192 197 206 201 187 173 163
55 48 47 47 43 40 40 37 36 38 37 33 30 31 30 28 28 26 26 25 23 24 27 25 22 20 18 17 16 12 11 14 15 15 13 13 15 14 7 0 3 6 7 3 353 334 315 298 283 272 266 258 249 241 235 225 208 197 194 186 181 181 183 189 196 200 206 209 208 211 212 208 202 196 191 188 186 186 186 188 191 184 173 158 145
58 53 52 51 46 42 42 41 40 43 41 36 34 34 32 31 31 29 28 26 25 25 25 22 20 19 17 15 15 13 12 15 18 19 16 15 18 18 12 6 6 8 8 9 7 357 341 320 295 273 260 253 246 237 227 212 190 183 182 175 170 171 171 174 175 170 172 179 183 186 189 190 190 189 188 187 185 186 190 191 185 174 164 157 146
61 58 58 56 50 46 46 46 46 47 43 38 37 37 36 34 33 33 32 29 28 29 28 23 20 20 20 18 17 16 14 16 20 22 20 17 18 19 17 12 7 8 8 9 12 11 6 358 333 287 254 241 235 228 217 201 185 179 175 167 162 162 161 164 161 151 146 150 156 161 162 167 176 177 180 184 180 182 190 192 185 174 162 153 146
64 62 61 58 53 49 49 48 48 49 45 39 38 38 37 36 36 34 34 33 31 30 29 27 24 22 22 21 20 19 17 16 19 22 23 22 19 19 20 16 9 6 8 11 13 14 14 13 7 332 259 236 228 223 212 197 186 182 176 169 164 158 153 152 150 146 143 141 142 144 141 141 149 154 163 174 174 175 180 179 177 176 166 152 145
67 63 62 59 55 52 52 50 48 48 45 41 40 41 39 37 37 36 35 34 34 32 31 31 27 24 23 21 20 20 19 18 18 21 24 25 23 22 22 21 16 9 10 16 18 16 15 17 19 22 12 218 207 202 195 183 175 172 167 161 157 152 147 142 139 138 136 133 131 128 125 123 124 127 134 144 156 173 183 178 172 174 169 161 153
65 62 62 59 58 57 55 50 47 48 46 41 39 42 43 39 37 37 35 35 35 32 29 27 23 19 18 17 16 17 18 19 19 20 23 25 26 26 25 25 24 19 17 20 21 20 20 21 26 41 59 82 115 135 144 148 147 142 141 141 140 141 139 135 133 132 128 125 122 118 115 115 113 111 113 117 124 145 169 177 176 174 170 168 166
62 60 61 60 62 62 54 47 48 51 50 42 39 43 45 43 40 37 33 32 31 28 24 20 17 14 12 12 13 13 15 19 20 20 22 24 25 27 28 27 29 28 25 24 22 23 29 31 34 50 65 74 84 98 109 116 118 119 123 128 132 135 134 130 128 126 121 119 117 112 110 111 107 103 105 108 114 122 132 142 150 150 145 146 152
63 62 63 64 68 65 52 45 49 56 56 47 41 44 47 47 45 41 36 32 29 25 22 18 15 12 10 9 11 12 14 19 21 20 21 23 23 25 27 28 30 33 33 30 28 30 36 40 43 53 65 72 78 86 91 97 104 109 114 119 124 128 128 123 120 118 115 113 111 108 108 109 107 104 104 106 109 114 118 121 125 128 127 124 126
70 66 65 70 77 69 53 51 55 58 59 54 47 46 49 50 49 46 42 36 30 25 22 19 15 12 10 9 10 13 15 19 21 21 20 20 21 22 24 27 30 34 36 36 36 40 44 48 52 55 59 66 75 80 82 86 95 101 105 111 115 118 119 119 117 113 108 106 107 107 109 112 113 112 112 112 111 111 111 112 113 115 117 116 113
73 72 70 78 86 75 57 59 62 60 59 59 55 51 51 51 51 48 45 41 36 30 25 22 19 14 11 10 11 14 17 19 20 21 20 19 18 18 20 22 26 31 36 39 42 47 50 53 56 57 57 60 65 69 72 80 88 93 96 101 104 107 111 113 112 109 106 106 108 109 110 111 114 116 116 115 115 114 113 113 110 109 110 110 106
56 58 63 79 92 83 63 64 68 65 61 59 57 55 53 51 49 48 45 41 38 34 29 25 22 16 10 10 12 14 16 17 18 19 20 20 18 15 16 19 22 25 31 38 43 49 53 56 58 60 62 63 63 64 66 70 76 81 84 89 93 98 103 106 107 107 107 109 111 113 116 118 119 120 118 116 116 117 119 118 114 110 110 108 102
52 56 57 60 68 76 70 62 61 64 66 61 56 54 51 47 45 45 44 39 35 33 31 28 24 19 13 9 9 12 14 15 16 17 20 21 20 17 17 20 24 28 32 37 42 47 52 56 57 57 58 59 60 61 60 59 62 67 72 78 85 91 96 100 102 104 107 112 114 115 119 121 120 121 121 120 121 123 123 120 116 113 113 111 105
53 60 60 55 52 52 55 56 49 52 58 56 53 53 49 42 40 38 38 37 33 28 28 28 25 23 21 15 9 8 8 10 14 17 19 22 22 22 23 26 32 39 42 45 48 50 50 50 49 47 47 47 48 51 52 53 55 57 60 67 75 81 84 87 90 95 104 112 115 117 119 121 122 124 124 122 122 124 124 123 120 116 115 113 110
49 55 59 56 51 48 48 47 35 31 42 38 35 40 41 36 33 29 28 34 33 27 25 25 21 20 23 24 22 16 12 13 18 21 21 22 24 26 29 32 39 46 49 52 55 54 51 49 46 45 45 45 44 44 46 49 51 51 52 57 62 67 73 76 80 88 96 101 103 105 107 110 114 119 122 125 125 122 121 121 118 115 114 113 112
45 39 43 54 57 51 47 42 35 34 41 35 24 20 17 17 23 24 20 23 28 28 27 27 23 18 17 22 26 26 24 23 25 25 26 27 28 29 31 34 40 46 51 55 56 52 49 48 46 46 48 49 47 47 49 51 53 52 53 54 57 61 66 70 77 86 93 97 101 102 100 101 105 110 115 122 127 127 124 122 121 119 117 118 118
48 30 28 43 58 59 53 44 36 35 43 49 44 33 23 14 15 21 22 20 22 25 26 28 29 25 20 20 23 25 26 27 27 28 32 34 32 30 32 34 38 43 50 56 55 50 47 47 46 46 49 51 50 51 54 55 55 57 57 55 55 59 64 68 76 85 88 90 95 100 103 106 109 110 113 120 127 130 128 127 127 126 123 122 121
48 33 24 29 47 62 60 49 35 29 35 48 51 43 34 28 24 30 35 35 35 36 34 32 31 27 25 27 30 28 28 29 29 31 35 36 34 33 35 37 38 41 46 52 53 50 48 49 48 47 50 52 53 55 57 58 59 60 60 57 56 59 65 72 79 81 79 79 84 88 94 101 104 103 105 112 117 118 118 120 124 125 124 124 122
47 37 29 28 38 55 58 51 40 28 30 45 54 47 40 37 38 42 43 43 47 49 44 38 34 29 25 28 34 35 33 31 31 34 36 36 34 33 36 39 40 42 46 51 53 51 50 50 50 51 53 56 58 59 59 59 61 63 64 63 62 62 65 70 73 74 75 77 79 80 84 89 93 95 97 102 106 109 113 119 124 126 126 126 122
49 41 46 38 29 35 50 54 43 31 32 47 54 44 36 37 43 45 42 42 50 53 44 36 34 32 28 26 31 36 34 32 32 35 36 35 32 31 33 37 40 41 43 47 49 50 51 52 52 55 59 61 63 62 60 60 61 62 63 65 64 64 64 64 63 65 70 72 71 70 73 77 81 84 88 91 94 96 99 105 115 124 127 123 118
56 54 62 46 23 25 41 55 45 37 42 52 50 38 30 32 40 42 38 39 49 50 40 31 29 31 30 29 31 35 35 34 34 34 34 34 33 34 37 40 42 42 44 46 48 49 51 54 57 62 66 66 64 62 59 57 56 57 58 60 60 61 62 63 63 65 70 72 70 68 68 70 73 79 84 86 87 89 91 95 105 120 127 124 119
70 65 59 39 25 24 30 42 44 46 54 52 37 26 23 25 34 40 36 33 41 48 39 27 24 27 29 31 34 35 33 34 38 39 36 33 35 38 43 45 45 44 44 46 49 51 51 55 62 68 69 65 60 56 53 52 54 56 57 58 59 60 61 62 64 69 75 78 78 77 78 80 86 95 99 97 93 93 95 99 107 118 125 124 121
71 62 47 32 23 13 15 42 56 54 54 41 20 10 9 12 22 37 37 31 37 49 44 30 26 27 26 27 35 37 29 30 37 40 37 34 34 37 42 45 46 48 47 46 48 51 53 57 63 68 66 61 56 54 53 54 56 59 60 61 62 62 62 62 66 71 77 81 82 83 84 86 90 97 104 106 103 98 95 96 106 117 124 126 125
53 39 26 22 13 3 14 67 73 52 41 30 13 1 1 7 18 38 44 39 42 47 41 33 32 30 24 23 31 34 30 33 39 41 39 38 36 37 41 45 45 47 48 49 49 50 51 55 60 64 63 60 58 57 56 58 61 63 63 62 60 59 60 63 69 76 81 84 85 86 87 87 89 94 98 100 102 101 94 90 97 106 114 122 128
35 12 354 356 4 12 46 80 71 48 33 19 3 352 354 9 33 54 54 49 49 48 44 42 37 29 24 24 27 32 36 40 42 40 41 42 38 36 39 43 42 41 44 48 50 48 47 50 56 59 59 58 58 58 57 59 61 61 59 57 56 57 60 64 69 75 82 88 90 90 92 93 93 94 94 93 95 97 92 87 92 98 101 111 127
26 2 352 358 12 43 74 64 47 47 32 3 345 336 337 351 35 71 63 58 53 47 51 56 42 28 25 25 25 32 41 42 38 37 41 44 42 38 38 40 39 38 40 44 48 49 49 50 49 47 46 46 49 50 52 56 57 58 60 61 58 57 61 65 65 68 75 83 85 82 83 88 91 91 93 94 97 99 94 89 94 101 101 105 119
354 357 7 16 21 41 61 37 20 17 7 356 345 336 336 340 5 76 67 63 57 46 50 55 40 29 31 30 27 32 44 43 37 35 39 41 43 43 43 40 37 36 37 40 45 49 50 48 42 33 31 35 40 44 50 60 64 62 65 66 61 57 61 62 58 56 57 61 65 70 75 83 89 91 90 89 89 94 96 93 96 104 106 105 109
359 9 19 21 18 22 37 35 24 13 13 18 22 16 10 16 45 87 72 62 53 45 47 48 38 36 39 33 27 32 45 45 38 35 35 34 36 44 48 42 36 36 36 35 33 33 36 40 40 33 29 32 38 42 44 50 59 61 60 62 62 62 62 55 46 42 39 38 46 69 78 78 83 87 86 85 85 89 96 100 100 102 106 107 107
24 26 25 23 17 15 26 36 26 13 18 31 34 27 23 26 33 53 72 68 55 48 49 47 46 50 44 32 28 34 43 42 36 32 30 25 25 37 48 43 36 36 35 29 22 18 24 36 44 41 33 30 32 34 33 34 41 48 54 64 66 60 54 46 41 40 37 34 39 66 77 74 78 88 91 93 95 94 93 93 92 94 101 106 105
30 38 38 36 21 8 15 28 20 9 18 35 34 26 20 10 4 12 61 82 61 52 56 59 59 53 39 30 32 38 38 33 26 24 25 20 19 30 42 40 34 31 29 27 26 21 20 30 40 39 30 26 26 25 25 28 37 46 52 57 53 43 38 37 35 37 44 46 47 57 73 80 96 117 118 108 103 101 97 91 86 89 99 107 107
8 46 57 56 26 10 17 27 20 14 28 43 37 27 16 7 9 23 68 90 58 52 62 66 62 52 37 31 32 35 33 26 15 14 22 17 17 29 36 35 32 25 21 26 31 27 23 30 32 24 17 16 15 14 16 22 35 45 41 36 33 30 32 36 35 42 52 53 53 62 79 88 98 118 130 121 105 103 107 103 95 93 95 100 111
281 191 121 104 66 32 38 41 28 25 42 52 41 23 8 11 24 39 47 33 32 54 66 62 54 48 44 39 29 26 31 27 16 18 24 18 19 29 28 26 26 18 11 15 21 15 10 11 4 359 5 12 12 5 8 15 21 24 16 14 18 17 16 22 42 58 62 53 54 65 79 84 87 97 109 112 107 103 100 98 100 110 109 103 104
265 250 195 135 45 5 30 56 40 32 47 57 46 26 12 18 30 35 26 23 29 38 43 44 45 48 53 51 40 32 31 26 18 22 28 24 29 29 20 21 24 7 357 356 354 348 357 2 358 352 3 17 19 17 14 16 18 16 9 3 355 351 350 348 4 65 72 62 62 70 73 74 77 80 81 87 96 97 88 82 81 98 134 123 103
315 306 225 145 38 352 1 69 54 41 58 61 40 17 6 17 33 35 29 29 29 19 9 17 39 51 55 54 45 37 32 27 25 36 36 30 32 28 21 31 36 16 352 347 344 344 355 4 5 5 12 18 19 23 19 11 6 359 352 345 333 323 325 323 310 98 87 78 81 86 79 73 76 77 72 76 88 90 86 85 83 80 95 122 105
320 315 240 130 22 340 320 305 51 52 67 56 32 16 2 10 33 35 28 27 28 23 21 29 41 47 49 45 34 27 28 28 26 24 19 18 28 35 33 35 31 16 2 352 344 347 355 3 7 14 21 17 13 15 11 360 354 350 348 348 346 342 336 304 235 169 113 90 90 104 102 81 74 74 73 77 86 89 86 89 90 84 82 86 90
306 305 278 222 347 322 304 294 353 66 89 62 35 19 358 348 29 44 40 39 39 35 36 41 41 36 34 29 21 20 30 32 20 10 356 346 11 32 29 23 15 8 1 346 333 344 358 358 359 8 15 5 355 358 359 355 354 355 357 2 9 11 9 316 240 215 184 118 83 93 107 97 82 76 68 61 65 71 47 37 93 139 101 83 76